Bemidji, MN

1:37 AM CDT on May 26, 2018 (GMT -0500)
Bemidji-Beltrami County

Weather History for KBJI - January, 2013

Change the Weather History Date:

Wednesday, January 16, 2013

  Actual Average Record
Temperature  
Mean Temperature 11 °F -  
Max Temperature 26 °F 12 °F 48 °F (1973)
Min Temperature -4 °F -7 °F -35 °F (1953)
Degree Days  
Heating Degree Days 54    
Moisture  
Dew Point 3 °F    
Average Humidity 73    
Maximum Humidity 95    
Minimum Humidity 49    
Precipitation  
Precipitation 0.00 in - - ()
Sea Level Pressure  
Sea Level Pressure 29.83 in    
Wind  
Wind Speed 13 mph (NW)    
Max Wind Speed 23 mph    
Max Gust Speed 32 mph    
Visibility 9 miles    
Events Snow    
Averages and records for this station are not official NWS values.
T = Trace of Precipitation, MM = Missing Value Source: NWS Daily Summary

Daily Weather History Graph

Daily Weather History Graph

Search for Another Location

Airport or City:

Astronomy

Jan. 16, 2013 Rise Set
Actual Time 8:01 AM CST 4:57 PM CST
Civil Twilight 7:27 AM CST 5:32 PM CST
Nautical Twilight 6:49 AM CST 6:10 PM CST
Astronomical Twilight 6:12 AM CST 6:47 PM CST
Moon 10:12 AM CST (1/16) 11:19 PM CST (1/16)
Length of Visible Light 10h 04m
Length of Day
8h 55m
Waxing Crescent, 28% of the Moon is Illuminated
Jan 16
Waxing Crescent
Jan 18
First Quarter
Jan 26
Full
Feb 3
Last Quarter
Feb 10
New

Hourly Weather History & Observations

Time (CST) Temp. Windchill Dew Point Humidity Pressure Visibility Wind Dir Wind Speed Gust Speed Precip Events Conditions
12:15 AM 19.9 °F 6.7 °F 16.5 °F 87% 29.48 in 4.0 mi SW 13.8 mph 23.0 mph N/A Snow Light Snow
12:35 AM 20.3 °F 8.3 °F 17.2 °F 88% 29.47 in 2.5 mi SW 11.5 mph - N/A Snow Light Snow
12:55 AM 20.5 °F 8.6 °F 18.0 °F 90% 29.47 in 1.8 mi SW 11.5 mph - N/A Snow Light Snow
1:15 AM 21.0 °F 9.3 °F 18.5 °F 90% 29.46 in 2.5 mi SW 11.5 mph - N/A Snow Light Snow
1:35 AM 21.4 °F 11.1 °F 19.0 °F 91% 29.47 in 2.0 mi SW 9.2 mph - N/A Snow Light Snow
1:55 AM 22.1 °F 12.0 °F 19.9 °F 91% 29.48 in 3.0 mi WSW 9.2 mph - N/A Snow Light Snow
2:15 AM 23.2 °F 13.3 °F 21.6 °F 94% 29.48 in 4.0 mi WSW 9.2 mph - N/A Snow Light Snow
2:35 AM 24.8 °F 12.4 °F 23.4 °F 94% 29.49 in 4.0 mi West 15.0 mph - N/A Snow Light Snow
2:55 AM 26.2 °F 14.7 °F 25.0 °F 95% 29.49 in 4.0 mi West 13.8 mph - N/A   Overcast
3:15 AM 26.4 °F 14.5 °F 25.0 °F 94% 29.49 in 10.0 mi West 15.0 mph 24.2 mph N/A   Overcast
4:15 AM 26.2 °F 11.5 °F 23.9 °F 91% 29.53 in 7.0 mi WNW 23.0 mph 32.2 mph N/A   Overcast
4:35 AM 25.2 °F 10.8 °F 22.6 °F 90% 29.53 in 7.0 mi WNW 20.7 mph 29.9 mph N/A   Overcast
4:55 AM 24.3 °F 10.8 °F 21.7 °F 90% 29.54 in 10.0 mi NW 17.3 mph 29.9 mph N/A   Overcast
5:35 AM 22.3 °F 6.6 °F 19.4 °F 89% 29.56 in 10.0 mi NW 21.9 mph - N/A   Overcast
5:55 AM 21.0 °F 5.7 °F 17.2 °F 85% 29.57 in 10.0 mi NW 19.6 mph 26.5 mph N/A   Overcast
6:15 AM 20.1 °F 5.9 °F 16.3 °F 85% 29.58 in 10.0 mi NW 16.1 mph - N/A   Overcast
6:35 AM 19.4 °F 5.5 °F 15.4 °F 85% 29.60 in 10.0 mi NNW 15.0 mph - N/A   Overcast
6:55 AM 18.5 °F 5.5 °F 14.9 °F 86% 29.62 in 10.0 mi NW 12.7 mph 17.3 mph N/A   Overcast
7:15 AM 17.2 °F 3.9 °F 13.6 °F 86% 29.64 in 10.0 mi NW 12.7 mph 19.6 mph N/A   Overcast
7:35 AM 16.0 °F 1.7 °F 12.0 °F 84% 29.65 in 10.0 mi NW 13.8 mph - N/A   Overcast
7:55 AM 14.9 °F 0.9 °F 11.1 °F 85% 29.66 in 10.0 mi NW 12.7 mph - N/A   Overcast
8:15 AM 14.4 °F 0.2 °F 10.9 °F 86% 29.67 in 10.0 mi NW 12.7 mph - N/A   Overcast
8:35 AM 13.6 °F 0.0 °F 9.9 °F 85% 29.69 in 10.0 mi NW 11.5 mph - N/A   Overcast
8:55 AM 13.1 °F -2.6 °F 9.0 °F 84% 29.72 in 10.0 mi NW 15.0 mph - N/A   Overcast
9:15 AM 12.4 °F -4.1 °F 8.1 °F 83% 29.73 in 10.0 mi NW 16.1 mph - N/A   Overcast
9:35 AM 12.0 °F -2.7 °F 7.0 °F 80% 29.75 in 10.0 mi NW 12.7 mph - N/A   Scattered Clouds
9:55 AM 11.7 °F -5.5 °F 6.1 °F 78% 29.75 in 10.0 mi NW 17.3 mph - N/A   Scattered Clouds
10:15 AM 11.5 °F -4.7 °F 4.8 °F 75% 29.77 in 10.0 mi NW 15.0 mph - N/A   Clear
10:35 AM 11.5 °F -4.7 °F 3.9 °F 72% 29.78 in 10.0 mi NW 15.0 mph - N/A   Clear
10:55 AM 11.7 °F -3.8 °F 3.2 °F 69% 29.78 in 10.0 mi NW 13.8 mph - N/A   Mostly Cloudy
11:15 AM 11.5 °F -5.2 °F 2.1 °F 66% 29.78 in 10.0 mi NW 16.1 mph - N/A   Scattered Clouds
11:35 AM 12.6 °F -3.8 °F 1.8 °F 62% 29.80 in 10.0 mi NNW 16.1 mph - N/A   Clear
11:55 AM 12.7 °F -4.6 °F 2.1 °F 63% 29.81 in 10.0 mi NW 18.4 mph - N/A   Mostly Cloudy
12:15 PM 12.4 °F -1.6 °F 1.6 °F 62% 29.83 in 10.0 mi NNW 11.5 mph - N/A   Scattered Clouds
12:35 PM 12.0 °F -4.0 °F -0.2 °F 58% 29.85 in 10.0 mi NW 15.0 mph - N/A   Clear
12:55 PM 12.2 °F -4.3 °F -2.2 °F 53% 29.86 in 10.0 mi NW 16.1 mph - N/A   Clear
1:15 PM 11.8 °F -3.6 °F -2.9 °F 52% 29.88 in 10.0 mi NW 13.8 mph - N/A   Scattered Clouds
1:35 PM 11.7 °F -5.0 °F -2.6 °F 53% 29.89 in 10.0 mi NW 16.1 mph - N/A   Scattered Clouds
1:55 PM 11.7 °F -5.0 °F -3.3 °F 51% 29.90 in 10.0 mi NW 16.1 mph - N/A   Scattered Clouds
2:15 PM 10.8 °F -5.6 °F -4.0 °F 52% 29.92 in 10.0 mi NW 15.0 mph 19.6 mph N/A   Mostly Cloudy
2:35 PM 10.2 °F -6.9 °F -1.1 °F 60% 29.93 in 10.0 mi NW 16.1 mph - N/A   Overcast
2:55 PM 9.5 °F -8.3 °F -2.2 °F 59% 29.94 in 10.0 mi NW 17.3 mph 21.9 mph N/A   Overcast
3:15 PM 8.8 °F -8.7 °F -6.9 °F 49% 29.95 in 10.0 mi NNW 16.1 mph - N/A   Overcast
3:55 PM 7.5 °F -8.4 °F -6.9 °F 52% 29.99 in 10.0 mi NNW 12.7 mph - N/A   Mostly Cloudy
4:15 PM 6.3 °F -9.2 °F -6.2 °F 57% 30.00 in 10.0 mi NW 11.5 mph - N/A   Scattered Clouds
4:35 PM 5.2 °F -11.4 °F -5.4 °F 62% 30.02 in 10.0 mi NW 12.7 mph - N/A   Clear
4:55 PM 3.9 °F -13.0 °F -6.3 °F 62% 30.04 in 10.0 mi NW 12.7 mph - N/A   Clear
5:15 PM 2.8 °F -15.7 °F -7.8 °F 61% 30.07 in 10.0 mi NW 15.0 mph - N/A   Clear
5:35 PM 1.8 °F -14.9 °F -8.9 °F 61% 30.08 in 10.0 mi NW 11.5 mph - N/A   Clear
5:55 PM 0.9 °F -18.3 °F -9.6 °F 62% 30.08 in 10.0 mi NW 15.0 mph 21.9 mph N/A   Clear
6:15 PM 0.1 °F -12.8 °F -10.7 °F 60% 30.09 in 10.0 mi WNW 6.9 mph - N/A   Clear
6:35 PM -0.9 °F -17.4 °F -9.6 °F 67% 30.09 in 10.0 mi WNW 10.4 mph - N/A   Clear
6:55 PM -1.7 °F -17.3 °F -9.2 °F 70% 30.10 in 10.0 mi NW 9.2 mph - N/A   Mostly Cloudy
7:15 PM -1.7 °F -19.2 °F -9.0 °F 71% 30.12 in 10.0 mi NW 11.5 mph - N/A   Overcast
7:55 PM -2.4 °F -14.4 °F -9.9 °F 70% 30.12 in 10.0 mi NW 5.8 mph - N/A   Overcast
8:15 PM -2.7 °F -17.5 °F -10.3 °F 70% 30.13 in 10.0 mi NW 8.1 mph - N/A   Overcast
8:35 PM -2.9 °F -15.0 °F -10.7 °F 70% 30.13 in 10.0 mi NW 5.8 mph - N/A   Overcast
8:55 PM -3.8 °F -17.5 °F -11.4 °F 70% 30.14 in 10.0 mi NW 6.9 mph - N/A   Overcast
9:15 PM -4.0 °F -19.0 °F -11.4 °F 71% 30.15 in 10.0 mi NW 8.1 mph - N/A   Overcast
9:55 PM -4.0 °F -19.0 °F -12.3 °F 68% 30.18 in 10.0 mi NW 8.1 mph - N/A   Overcast
10:15 PM -4.0 °F -23.0 °F -12.3 °F 68% 30.20 in 10.0 mi WNW 12.7 mph - N/A   Overcast
10:35 PM -4.0 °F -22.1 °F -12.6 °F 66% 30.20 in 7.0 mi NW 11.5 mph - N/A Snow Light Snow
10:55 PM -4.4 °F -21.6 °F -12.8 °F 67% 30.20 in 10.0 mi NW 10.4 mph - N/A Snow Light Snow
11:15 PM -4.7 °F -21.1 °F -12.5 °F 69% 30.20 in 7.0 mi WNW 9.2 mph - N/A Snow Light Snow
11:35 PM -4.9 °F -18.8 °F -12.6 °F 69% 30.20 in 3.0 mi WNW 6.9 mph - N/A Snow Light Snow
11:55 PM -4.9 °F -18.8 °F -11.6 °F 73% 30.21 in 5.0 mi WNW 6.9 mph - N/A Snow Light Snow